This demonstration page uses our WeatherBlox Daily Observations layout. Learn more.

Left ArrowRight Arrow

Hourly Observations for February 28, 2018

Temp ( °F °C ) Dew Point ( °F °C ) Humidity (%) Winds ( mph kmh ) Pressure ( in mb ) Visibility ( mi km ) Precip ( " mm )
12:54 am 00:54 Clear with Mist and Fog 30 -1.1 28 -2.2 92 92 Calm 29.87 1012 5 8 0.00 0.00
1:54 am 01:54 Clear with Mist and Fog 28 -2.2 27 -2.8 96 96 NNW 3 6 29.86 1011 5 8 0.00 0.00
2:54 am 02:54 Clear with Mist and Fog 28 -2.2 26 -3.3 92 92 N 6 9 29.85 1011 5 8 0.00 0.00
3:54 am 03:54 Partly Cloudy with Mist and Fog 30 -1.1 28 -2.2 92 92 N 7 11 29.85 1011 5 8 0.00 0.00
4:04 am 04:04 Mostly Cloudy with Mist and Fog 30 -1.1 28 -2.2 92 92 N 7 11 29.88 1012 5 8 0.00 0.00
4:54 am 04:54 Cloudy with Mist and Fog 30 -1.1 28 -2.2 92 92 N 9 15 29.84 1011 5 8 0.00 0.00
5:46 am 05:46 Partly Cloudy with Mist and Fog 28 -2.2 26 -3.3 92 92 N 9 15 29.88 1012 5 8 0.00 0.00
5:54 am 05:54 Mostly Clear with Mist and Fog 27 -2.8 26 -3.3 96 96 N 10 17 29.85 1011 5 8 0.00 0.00
6:54 am 06:54 Clear with Mist and Fog 26 -3.3 24 -4.4 92 92 N 7 11 29.87 1011 6 10 0.00 0.00
7:54 am 07:54 Mostly Cloudy with Mist and Fog 27 -2.8 24 -4.4 89 89 Calm 29.89 1012 5 8 0.00 0.00
8:44 am 08:44 Partly Cloudy with Mist and Fog 32 0 28 -2.2 85 85 N 6 9 29.91 1013 6 10 0.00 0.00
8:54 am 08:54 Partly Cloudy with Mist and Fog 32 0 28 -2.2 85 85 N 6 9 29.88 1012 6 10 0.00 0.00
9:20 am 09:20 Hazy 35 1.7 30 -1.1 82 82 NE 10 17 29.91 1013 5 8 0.00 0.00
9:54 am 09:54 Hazy 36 2.2 31 -0.6 82 82 NE 13 20 29.87 1012 6 10 0.00 0.00
10:18 am 10:18 Mostly Cloudy with Haze 37 2.8 31 -0.6 79 79 NNE 12 19 29.88 1012 6 10 0.00 0.00
10:49 am 10:49 Cloudy 39 4 30 -1 70 70 NE 13 20 29.88 1012 7 11 0.00 0.00
10:54 am 10:54 Mostly Cloudy 40 4.4 32 0 73 73 NNE 16 26 29.88 1012 7 11 0.00 0.00
11:09 am 11:09 Partly Cloudy 41 5 32 0 70 70 NNE 14 22 29.91 1013 7 11 0.00 0.00
11:54 am 11:54 Sunny 43 6.1 33 0.6 68 68 NNE 15 24 29.89 1012 8 13 0.00 0.00
12:54 pm 12:54 Sunny 46 7.8 34 1.1 63 63 NNE 17 28 29.86 1011 8 13 0.00 0.00
1:54 pm 13:54 Mostly Sunny 48 8.9 35 1.7 61 61 N 16 26 29.84 1011 7 11 0.00 0.00
2:18 pm 14:18 Mostly Cloudy 45 7.2 35 1.7 68 68 NNE 18 30 29.85 1011 8 13 0.00 0.00
2:54 pm 14:54 Cloudy 44 6.7 34 1.1 68 68 NNE 17 28 29.85 1011 7 11 0.00 0.00
3:47 pm 15:47 Mostly Sunny 45 7.2 34 1.1 66 66 NNE 16 26 29.85 1011 7 11 0.00 0.00
3:54 pm 15:54 Mostly Sunny 46 7.8 34 1.1 63 63 NNE 20 31 29.86 1011 7 11 0.00 0.00
4:54 pm 16:54 Sunny 43 6.1 32 0 65 65 N 18 30 29.88 1012 7 11 0.00 0.00
5:54 pm 17:54 Hazy 39 3.9 30 -1.1 70 70 N 13 20 29.92 1013 6 10 0.00 0.00
6:54 pm 18:54 Clear 38 3.3 30 -1.1 73 73 N 18 30 29.94 1014 7 11 0.00 0.00
7:54 pm 19:54 Clear 35 1.7 28 -2.2 76 76 NNW 16 26 29.97 1015 8 13 0.00 0.00
8:54 pm 20:54 Clear 34 1.1 27 -2.8 76 76 N 16 26 30.00 1016 10 16 0.00 0.00
9:54 pm 21:54 Mostly Clear 34 1.1 26 -3.3 73 73 NNW 17 28 30.03 1017 10 16 0.00 0.00
10:54 pm 22:54 Clear 32 0 26 -3.3 79 79 N 13 20 30.05 1018 10 16 0.00 0.00
11:54 pm 23:54 Mostly Clear 31 -0.6 25 -3.9 79 79 NNW 10 17 30.05 1018 10 16 0.00 0.00

Powered by AerisWeather